Weather History for KCDA - January, 2013

Change the Weather History Date:

Monday, January 14, 2013

  Actual Average (K1V4) Record (K1V4)
Temperature  
Mean Temperature 38 °F 16 °F  
Max Temperature 45 °F 27 °F 62 °F (1932)
Min Temperature 31 °F 6 °F -38 °F (1914)
Degree Days  
Heating Degree Days 26 49  
Month to date heating degree days 669  
Since 1 July heating degree days 3622  
Cooling Degree Days 0 0  
Month to date cooling degree days 0  
Year to date cooling degree days 0  
Moisture  
Dew Point 32 °F    
Average Humidity 76    
Maximum Humidity 92    
Minimum Humidity 53    
Precipitation  
Precipitation 0.00 in 0.07 in 0.75 in (1976)
Month to date precipitation 1.12  
Year to date precipitation 1.12  
Sea Level Pressure  
Sea Level Pressure 30.03 in    
Wind  
Wind Speed 7 mph (WNW)    
Max Wind Speed 17 mph    
Max Gust Speed 29 mph    
Visibility 7 miles    
Events Fog    
T = Trace of Precipitation, MM = Missing Value Source: NWS Daily Summary

Daily Weather History Graph

Daily Weather History Graph

Search for Another Location

Airport or City:

Trip Planner

Search our weather history database for the weather conditions in past years. The results will help you decide how hot, cold, wet, or windy it might be!

Date:

Astronomy

Jan. 14, 2013 Rise Set
Actual Time 7:21 AM EST 4:33 PM EST
Civil Twilight 6:49 AM EST 5:05 PM EST
Nautical Twilight 6:13 AM EST 5:41 PM EST
Astronomical Twilight 5:38 AM EST 6:16 PM EST
Moon 8:44 AM EST (1/14) 8:26 PM EST (1/14)
Length of Visible Light 10h 16m
Length of Day
9h 11m
Waxing Crescent, 11% of the Moon is Illuminated
Jan 14
Waxing Crescent
Jan 18
First Quarter
Jan 26
Full
Feb 3
Last Quarter
Feb 10
New

Hourly Weather History & Observations

Time (EST) Temp. Windchill Dew Point Humidity Pressure Visibility Wind Dir Wind Speed Gust Speed Precip Events Conditions
12:35 AM 42.1 °F 37.7 °F 39.7 °F 91% 29.91 in 0.2 mi SSE 6.9 mph - N/A   Light Drizzle
12:55 AM 41.7 °F 37.3 °F 39.4 °F 91% 29.91 in 0.2 mi South 6.9 mph - N/A Fog Fog
1:15 AM 41.9 °F 40.0 °F 39.6 °F 91% 29.91 in 0.2 mi South 3.5 mph - N/A Fog Fog
1:35 AM 42.1 °F 38.4 °F 39.7 °F 91% 29.91 in 0.2 mi South 5.8 mph - N/A Fog Fog
1:55 AM 41.9 °F 37.5 °F 39.6 °F 91% 29.90 in 0.2 mi South 6.9 mph - N/A Fog Fog
2:15 AM 42.1 °F 37.7 °F 39.7 °F 91% 29.90 in 0.2 mi South 6.9 mph - N/A Fog Fog
2:35 AM 42.1 °F 37.1 °F 39.7 °F 91% 29.88 in 0.2 mi South 8.1 mph - N/A Fog Fog
2:55 AM 42.1 °F 37.7 °F 39.7 °F 91% 29.87 in 0.2 mi SSE 6.9 mph - N/A Fog Fog
3:15 AM 42.1 °F 36.6 °F 39.7 °F 91% 29.85 in 0.2 mi SSE 9.2 mph - N/A Fog Fog
3:55 AM 42.6 °F 37.2 °F 40.1 °F 91% 29.83 in 2.0 mi South 9.2 mph - N/A   Overcast
4:15 AM 42.8 °F 37.0 °F 40.3 °F 91% 29.80 in 5.0 mi SSE 10.4 mph - N/A   Overcast
4:35 AM 42.6 °F 39.0 °F 40.3 °F 91% 29.81 in 2.0 mi South 5.8 mph - N/A   Overcast
4:55 AM 42.6 °F 39.9 °F 40.1 °F 91% 29.82 in 2.0 mi South 4.6 mph - N/A   Overcast
5:15 AM 42.3 °F 37.9 °F 40.1 °F 92% 29.82 in 0.5 mi SSE 6.9 mph - N/A Fog Fog
5:35 AM 42.4 °F 38.8 °F 40.1 °F 91% 29.82 in 0.2 mi SSE 5.8 mph - N/A Fog Fog
5:55 AM 42.4 °F 37.5 °F 40.1 °F 91% 29.82 in 0.5 mi SSE 8.1 mph - N/A Fog Fog
6:15 AM 42.8 °F 39.3 °F 40.1 °F 90% 29.83 in 1.8 mi SSE 5.8 mph - N/A   Overcast
6:35 AM 42.6 °F 38.4 °F 40.1 °F 91% 29.83 in 1.0 mi SSE 6.9 mph - N/A   Overcast
6:55 AM 42.8 °F 40.1 °F 40.3 °F 91% 29.85 in 3.0 mi SSE 4.6 mph - N/A   Overcast
7:15 AM 42.8 °F 41.1 °F 40.1 °F 90% 29.86 in 3.0 mi SE 3.5 mph - N/A   Overcast
7:35 AM 42.8 °F - 40.1 °F 90% 29.89 in 7.0 mi Calm Calm - N/A   Overcast
7:55 AM 41.4 °F - 39.0 °F 91% 29.91 in 1.5 mi Calm Calm - N/A   Light Drizzle
8:15 AM 42.3 °F - 39.9 °F 91% 29.92 in 1.5 mi Calm Calm - N/A   Overcast
8:35 AM 42.3 °F - 40.1 °F 92% 29.92 in 1.0 mi Calm Calm - N/A   Overcast
8:55 AM 42.6 °F 39.0 °F 40.1 °F 91% 29.93 in 0.5 mi SSE 5.8 mph - N/A Fog Fog
9:15 AM 42.6 °F 39.9 °F 40.1 °F 91% 29.93 in 0.5 mi SE 4.6 mph - N/A Fog Fog
9:35 AM 42.6 °F 39.9 °F 40.1 °F 91% 29.94 in 0.2 mi ENE 4.6 mph - N/A Fog Fog
9:55 AM 44.2 °F 38.8 °F 41.7 °F 91% 29.96 in 7.0 mi West 10.4 mph 18.4 mph N/A   Mostly Cloudy
10:15 AM 45.3 °F 38.7 °F 43.2 °F 92% 29.97 in 10.0 mi NNW 15.0 mph - N/A   Mostly Cloudy
10:35 AM 44.6 °F 38.4 °F 42.1 °F 91% 29.98 in 10.0 mi West 12.7 mph 20.7 mph N/A   Mostly Cloudy
10:55 AM 44.6 °F 39.7 °F 42.1 °F 91% 29.98 in 10.0 mi NNW 9.2 mph 17.3 mph N/A   Overcast
11:15 AM 44.4 °F 37.5 °F 41.7 °F 90% 30.00 in 10.0 mi NW 15.0 mph 24.2 mph N/A   Overcast
11:35 AM 43.0 °F 37.2 °F 37.0 °F 80% 30.02 in 10.0 mi NW 10.4 mph 18.4 mph N/A   Overcast
11:55 AM 41.0 °F 34.7 °F 34.9 °F 79% 30.04 in 10.0 mi NNE 10.4 mph - N/A   Overcast
12:15 PM 41.2 °F 35.5 °F 32.9 °F 72% 30.04 in 10.0 mi WNW 9.2 mph - N/A   Overcast
12:35 PM 42.1 °F 37.7 °F 32.0 °F 67% 30.05 in 10.0 mi NW 6.9 mph 24.2 mph N/A   Overcast
12:55 PM 42.1 °F 38.4 °F 34.0 °F 73% 30.05 in 10.0 mi NNE 5.8 mph - N/A   Mostly Cloudy
1:15 PM 41.7 °F 33.7 °F 30.6 °F 65% 30.06 in 10.0 mi NW 16.1 mph 21.9 mph N/A   Mostly Cloudy
1:35 PM 40.8 °F 33.7 °F 28.0 °F 60% 30.08 in 10.0 mi WNW 12.7 mph 24.2 mph N/A   Mostly Cloudy
1:55 PM 40.5 °F 31.8 °F 27.3 °F 59% 30.09 in 10.0 mi NW 17.3 mph 23.0 mph N/A   Mostly Cloudy
2:15 PM 40.5 °F 32.1 °F 24.6 °F 53% 30.10 in 10.0 mi WNW 16.1 mph 28.8 mph N/A   Scattered Clouds
2:35 PM 39.6 °F 32.1 °F 24.3 °F 54% 30.11 in 10.0 mi NW 12.7 mph 19.6 mph N/A   Scattered Clouds
2:55 PM 39.2 °F 32.5 °F 24.3 °F 55% 30.12 in 10.0 mi WNW 10.4 mph 21.9 mph N/A   Mostly Cloudy
3:15 PM 39.2 °F 31.6 °F 23.7 °F 54% 30.13 in 10.0 mi WNW 12.7 mph 20.7 mph N/A   Overcast
3:35 PM 37.9 °F 30.9 °F 22.8 °F 55% 30.14 in 10.0 mi WNW 10.4 mph 17.3 mph N/A   Overcast
3:55 PM 37.6 °F 29.1 °F 21.7 °F 53% 30.15 in 10.0 mi WNW 13.8 mph 17.3 mph N/A   Overcast
4:15 PM 37.2 °F 29.6 °F 23.0 °F 56% 30.16 in 10.0 mi West 11.5 mph - N/A   Overcast
4:35 PM 36.9 °F 30.7 °F 22.3 °F 56% 30.16 in 10.0 mi West 8.1 mph 17.3 mph N/A   Mostly Cloudy
5:15 PM 35.2 °F 28.8 °F 21.2 °F 57% 30.15 in 10.0 mi WNW 8.1 mph - N/A   Scattered Clouds
5:35 PM 35.1 °F 30.1 °F 21.9 °F 59% 30.15 in 10.0 mi WNW 5.8 mph - N/A   Mostly Cloudy
5:55 PM 35.1 °F - 21.9 °F 59% 30.15 in 10.0 mi Calm Calm - N/A   Overcast
6:15 PM 35.1 °F 30.1 °F 23.2 °F 62% 30.14 in 10.0 mi NW 5.8 mph - N/A   Overcast
6:35 PM 34.9 °F 29.9 °F 25.3 °F 68% 30.16 in 10.0 mi NNW 5.8 mph - N/A   Overcast
6:55 PM 35.1 °F 27.9 °F 24.4 °F 65% 30.18 in 10.0 mi WNW 9.2 mph - N/A   Overcast
7:15 PM 34.2 °F 24.8 °F 24.1 °F 67% 30.19 in 10.0 mi WNW 13.8 mph 18.4 mph N/A   Overcast
7:35 PM 33.3 °F 27.1 °F 23.0 °F 66% 30.21 in 10.0 mi NW 6.9 mph - N/A   Mostly Cloudy
7:55 PM 33.3 °F 25.7 °F 22.8 °F 66% 30.20 in 10.0 mi NNW 9.2 mph - N/A   Overcast
8:15 PM 33.1 °F 24.4 °F 22.6 °F 66% 30.22 in 10.0 mi NW 11.5 mph 18.4 mph N/A   Overcast
8:35 PM 32.9 °F - 22.3 °F 65% 30.23 in 10.0 mi Calm Calm - N/A   Overcast
8:55 PM 32.7 °F 27.3 °F 21.9 °F 64% 30.23 in 10.0 mi NW 5.8 mph - N/A   Overcast
9:15 PM 32.5 °F 27.1 °F 21.6 °F 64% 30.23 in 10.0 mi NW 5.8 mph - N/A   Overcast
9:35 PM 32.2 °F 25.8 °F 21.6 °F 65% 30.21 in 10.0 mi NW 6.9 mph - N/A   Overcast
9:55 PM 32.2 °F 27.7 °F 21.0 °F 63% 30.22 in 10.0 mi NW 4.6 mph - N/A   Overcast
10:15 PM 32.2 °F 27.7 °F 21.0 °F 63% 30.21 in 10.0 mi NNW 4.6 mph - N/A   Overcast
10:35 PM 32.0 °F 28.7 °F 20.7 °F 63% 30.22 in 10.0 mi North 3.5 mph - N/A   Overcast
10:55 PM 32.0 °F 24.2 °F 19.6 °F 60% 30.20 in 10.0 mi North 9.2 mph - N/A   Overcast
11:15 PM 32.0 °F 26.4 °F 18.9 °F 58% 30.22 in 10.0 mi WNW 5.8 mph - N/A   Overcast
11:35 PM 32.0 °F 26.4 °F 19.0 °F 59% 30.25 in 10.0 mi WNW 5.8 mph - N/A   Overcast
11:55 PM 31.6 °F 25.1 °F 19.2 °F 60% 30.24 in 10.0 mi NNW 6.9 mph - N/A   Overcast